Location: Kile Knob Observatory
(38.6083°N, 79.4792°W)
Time: 12:26:59
(UTC-04:00)

Tiangong 2 - Visible Passes

Search period start: 25 May 2019 00:00
Search period end: 04 June 2019 00:00
Orbit: 379 x 387 km, 42.8° (Epoch: 25 May)

Date Brightness Start Highest point End Pass type
(mag) Time Alt. Az. Time Alt. Az. Time Alt. Az.
25 May 2.5 21:21:10 10° WNW 21:24:06 36° N 21:27:01 10° ENE visible
25 May 2.3 22:58:03 10° WNW 23:00:24 41° NW 23:00:24 41° NW visible
26 May 2.1 21:58:00 10° WNW 22:01:00 41° N 22:02:59 18° ENE visible
26 May 4.0 23:34:42 10° WNW 23:35:09 13° WNW 23:35:09 13° WNW visible
27 May 2.4 20:57:54 10° WNW 21:00:50 36° N 21:03:46 10° ENE visible
27 May 1.0 22:34:39 10° WNW 22:37:41 78° N 22:37:41 78° N visible
28 May 1.6 21:34:37 10° WNW 21:37:41 53° NNE 21:40:13 14° E visible
28 May 3.5 23:11:26 10° W 23:12:23 17° W 23:12:23 17° W visible
29 May 1.1 22:11:15 10° WNW 22:14:21 62° SSW 22:14:56 49° SSE visible
30 May 1.1 21:11:10 10° WNW 21:14:18 78° NNE 21:17:25 10° ESE visible
30 May 3.4 22:48:26 10° W 22:49:40 16° WSW 22:49:40 16° WSW visible
31 May 2.0 21:47:57 10° W 21:50:50 34° SSW 21:52:16 22° SSE visible
01 Jun 3.7 22:26:26 10° SW 22:27:04 10° SW 22:27:04 10° SW visible
02 Jun 3.0 21:24:53 10° W 21:27:14 20° SW 21:29:36 10° SSE visible
